Regional Weather Roundup
Issued by NWS

Home | Current Version | Previous Version | Graphics & Text | Print | Product List | Glossary On
Versions: 1 2 3 4 5 6 7 8 9 10 11 12 13 14 15 16 17 18 19 20 21 22 23 24 25 26 27 28 29 30 31 32 33 34 35 36 37 38 39 40 41 42 43 44 45 46 47 48 49 50
000
ASUS43 KMPX 231310
RWRMN
WEATHER ROUNDUP FOR MINNESOTA
NATIONAL WEATHER SERVICE TWIN CITIES/CHANHASSEN MN
800 AM CDT THU MAR 23 2017


NOTE: "FAIR" INDICATES FEW OR NO CLOUDS BELOW 12,000 FEET WITH NO
SIGNIFICANT WEATHER AND/OR OBSTRUCTIONS TO VISIBILITY. N/A MEANS
CURRENT SKY AND/OR WEATHER CONDITIONS ARE NOT AVAILABLE.

MNZ060>063-068>070-231400-
   Twin Cities Metro

CITY           SKY/WX    TMP DP  RH WIND       PRES   REMARKS
TWIN CITIES    CLOUDY    37  20  50 S13       30.13F
ST PAUL        CLOUDY    37  23  56 SE16G25   30.15F
CRYSTAL        CLOUDY    37  20  50 S14G25    30.11F
BLAINE         CLOUDY    37  23  56 S18       30.11F
LAKEVILLE      CLOUDY    34  25  69 SE10      30.13F WCI  26
EDEN PRAIRIE   CLOUDY    37  23  56 SE15      30.11F
SOUTH ST PAUL  CLOUDY    37  22  56 SE8G18    30.14F
LAKE ELMO      CLOUDY    36  23  60 SE10      30.15F
$$
MNZ001>005-007-008-013>017-022>024-027-028-231400-
   Northwest Minnesota

CITY           SKY/WX    TMP DP  RH WIND       PRES   REMARKS
BEMIDJI        CLEAR     33  20  59 S10G17    29.95S WCI  25
HALLOCK        CLOUDY    34  27  75 S16       29.87R WCI  23
ROSEAU         CLEAR     34  25  69 S13       29.88S WCI  25
WARROAD        CLOUDY    32  23  69 S10       29.90S WCI  24
THIEF RVR FALL   N/A     35  23  61 S13       29.90  WCI  26
CROOKSTON      CLOUDY    34  25  69 S14G20    29.90S WCI  24
FOSSTON        PTCLDY    34  21  60 S14       29.91S WCI  24
DETROIT LAKES  PTCLDY    34  25  69 S15       29.94F WCI  24
MOORHEAD       CLOUDY    36  25  64 S21G28    29.91F
PARK RAPIDS    CLOUDY    35  20  54 S18G24    29.96F WCI  24
MAHNOMEN       FAIR      35  23  62 S16G25    29.90F WCI  25
$$
MNZ006-009>011-018-025>026-231400-
   North Central Minnesota

CITY           SKY/WX    TMP DP  RH WIND       PRES   REMARKS
BAUDETTE       CLEAR     31  19  61 S12       29.92F WCI  22
FLAG ISLAND    PTCLDY    28  21  74 SE16      29.90S WCI  17
INTL FALLS     CLOUDY    32  19  58 S9        29.97F WCI  24
WASKISH        CLEAR     32  21  64 S10G21    29.94F WCI  24
BIG FORK       CLOUDY    34  21  60 S14G20    29.99F WCI  24
LONGVILLE      CLOUDY    34  21  60 SE13      30.00F WCI  25
GRAND RAPIDS   CLOUDY    31  23  72 S18G24    30.03F WCI  19
CRANE LAKE     CLOUDY    30  21  69 S8        30.05F WCI  23
ORR            CLOUDY    30  19  64 S12G18    30.00F WCI  21
COOK           CLOUDY    30  21  69 SE12G21   30.04F WCI  21
WALKER         FAIR      33  20  59 S9G16     29.97F WCI  25
$$
MNZ012-019>021-037-231400-
   Northeast Minnesota

CITY           SKY/WX    TMP DP  RH WIND       PRES   REMARKS
DULUTH         CLOUDY    29  27  92 SE13      30.11F WCI  19
ELY            CLOUDY    28  23  80 S9        30.07F WCI  20
HIBBING        CLOUDY    29  22  75 S13G22    30.05F WCI  19
EVELETH        MOCLDY    32  23  68 S9        30.08F WCI  24
DULUTH HARBOR  CLOUDY    32  28  86 CALM      30.17F
TWO HARBORS    CLOUDY    32  27  80 SE3       30.13F
SILVER BAY     CLOUDY    30  28  93 S6        30.14F WCI  24
GRAND MARAIS     N/A     31  29  92 S8        30.21F WCI  23
G MARAIS ARPRT LGT SNOW  25  21  86 S10G18    30.14F WCI  15
$$
MNZ029>031-032-039>041-046>048-054>057-064-231400-
   West Central Minnesota

CITY           SKY/WX    TMP DP  RH WIND       PRES   REMARKS
FERGUS FALLS   CLOUDY    36  25  64 S20G25    29.98S
WHEATON        CLOUDY    36  27  69 SE20      29.94F
MORRIS         MOCLDY    36  25  64 SE18G24   29.95F
ALEXANDRIA     CLOUDY    36  23  59 S18       29.99F
ELBOW LAKE     FAIR      35  24  66 E21       29.96S WCI  23
WADENA         PTCLDY    34  21  60 S14G23    29.98S WCI  24
GLENWOOD       CLOUDY    36  25  64 SE15G22   30.00F
APPLETON       CLOUDY    39  25  56 SE13      29.97F
BENSON         CLOUDY    39  21  48 S13       30.01S
ORTONVILLE     CLOUDY    36  27  69 SE13      29.95S
MADISON        CLOUDY    39  28  65 SE15      29.96S
WILLMAR        CLOUDY    37  25  60 SE16G24   30.03F
$$
MNZ033>034-036-042>043-049>051-058-059-231400-
   Central Minnesota

CITY           SKY/WX    TMP DP  RH WIND       PRES   REMARKS
ST CLOUD       CLOUDY    36  23  59 SE15      30.07F
SAUK CENTRE    CLOUDY    35  23  62 SE15G23   30.02F WCI  25
PAYNESVILLE      N/A     36  23  60 SE14G20   30.04F
AITKIN         CLOUDY    36  19  51 SE9       30.03F
PINE RIVER     CLOUDY    34  21  60 SE13G18   30.04F WCI  25
BRAINERD       CLOUDY    34  20  56 S10       30.03F WCI  26
STAPLES        CLOUDY    36  21  55 S15       30.00F
LONG PRAIRIE   CLOUDY    34  23  64 E16       30.02F WCI  23
LITTLE FALLS   CLOUDY    36  21  55 SE14      30.05F
LITCHFIELD     CLOUDY    37  25  60 SE9G21    30.06F
BUFFALO        CLOUDY    36  23  58 SE9G16    30.10F
MAPLE LAKE     CLOUDY    37  26  64 SE12G17   30.08F
HUTCHINSON     CLOUDY    37  26  65 SE13G20   30.07F
$$
MNZ037-044-045-052-053-231400-
   East Central Minnesota

CITY           SKY/WX    TMP DP  RH WIND       PRES   REMARKS
PRINCETON      CLOUDY    37  23  56 SE14G20   30.10F
MORA           CLOUDY    34  23  64 SE6       30.12F WCI  29
CAMBRIDGE      CLOUDY    39  25  56 SE10      30.09F
RUSH CITY      CLOUDY    34  22  61 SE9       30.13F WCI  27
MOOSE LAKE     CLOUDY    32  23  69 S8        30.09F WCI  25
HINCKLEY       CLOUDY    32  23  69 SE7       30.12F WCI  26
CLOQUET        CLOUDY    30  23  74 SE7       30.10F WCI  23
MCGREGOR       CLOUDY    32  23  69 S12       30.07F WCI  23
$$
MNZ071>073-080-081-089-090-097-098-231400-
   Southwest Minnesota

CITY           SKY/WX    TMP DP  RH WIND       PRES   REMARKS
MONTEVIDEO     CLOUDY    37  25  60 S14G22    30.00S
GRANITE FALLS  CLOUDY    38  27  64 SE15      30.01F
CANBY          CLOUDY    39  27  62 SE12      29.95F
MARSHALL       CLOUDY    38  23  55 S18       29.97F
REDWOOD FALLS  CLOUDY    37  24  59 SE17      30.02F
OLIVIA         MOCLDY    36  27  69 SE17G26   30.02F
PIPESTONE      CLOUDY    37  21  52 S14G20    29.94F
WINDOM         PTCLDY    36  21  55 SE18G24   30.02F
WORTHINGTON    CLOUDY    36  21  55 SE20      29.98F
JACKSON        CLOUDY    34  23  64 SE15G23   30.03F WCI  24
TRACY          CLOUDY    38  25  58 S21G28    29.96F
SLAYTON        CLOUDY    35  25  66 SE20      29.98F WCI  24
$$
MNZ065>067-074>077-082>085-091>093-231400-
   South Central Minnesota

CITY           SKY/WX    TMP DP  RH WIND       PRES   REMARKS
MANKATO        CLOUDY    36  24  62 SE18      30.09F
NEW ULM        CLOUDY    36  25  64 SE14      30.06F
ST JAMES       CLOUDY    36  25  64 SE18G24   30.06F
FAIRMONT       CLOUDY    36  23  59 SE23      30.05F
GLENCOE        CLOUDY    37  28  69 SE12      30.08F
FARIBAULT      CLOUDY    36  25  64 SE16      30.12F
OWATONNA       CLOUDY    36  21  55 SE18G28   30.12F
WASECA         CLOUDY    34  25  69 SE17      30.12F WCI  23
ALBERT LEA     CLOUDY    34  23  64 S21       30.11F WCI  22
$$
MNZ078>079-086>088-094>096-231400-
   Southeast Minnesota

CITY           SKY/WX    TMP DP  RH WIND       PRES   REMARKS
ROCHESTER      CLOUDY    33  22  63 SE17G28   30.16F WCI  22
RED WING       CLOUDY    37  18  44 SE15      30.17F
STANTON        CLOUDY    37  22  55 S9        30.13F
DODGE CENTER   CLOUDY    34  23  64 SE17G25   30.13F WCI  23
WINONA         CLOUDY    36  25  64 SE10      30.23F
AUSTIN         CLOUDY    34  21  60 SE14G21   30.14F WCI  24
PRESTON        CLOUDY    32  21  62 SE13      30.19S WCI  23
$$
ABBREVIATIONS USED IN REMARKS
   TC - TEMPERATURES IN CELSIUS
  WCI - WIND CHILL INDEX
   HX - HEAT INDEX
  VSB - VISIBILITY
$$




USA.gov is the U.S. government's official web portal to all federal, state and local government web resources and services.